EW6390 Weather Reports


time (UTC)temp
C
wind
direction
speed
KPH
gust
KPH
rain 1hr
cm
rain 24hr
cm
rain mn
cm
humidity
%
barometer
mb
20260505184217 26 236 3.2 14.5 0.00 0.00 0.00 33 1015.1
20260505183717 26 227 3.2 17.7 0.00 0.00 0.00 35 1015.0
20260505183337 26 219 3.2 11.3 0.00 0.00 0.00 32 1015.2
20260505182838 26 229 4.8 12.9 0.00 0.00 0.00 34 1015.3
20260505182336 26 231 6.4 20.9 0.00 0.00 0.00 32 1015.4
20260505181216 26 258 4.8 20.9 0.00 0.00 0.00 32 1015.7
20260505180717 26 248 4.8 16.1 0.00 0.00 0.00 32 1015.8
20260505180222 26 189 6.4 19.3 0.00 0.00 0.00 33 1016.0
20260505180217 26 257 4.8 19.3 0.00 0.00 0.00 33 1015.9
20260505175217 26 273 4.8 14.5 0.00 0.00 0.00 32 1015.9
20260505174717 26 118 4.8 14.5 0.00 0.00 0.00 33 1015.9
20260505174217 26 226 4.8 17.7 0.00 0.00 0.00 35 1015.9
20260505173718 26 200 4.8 17.7 0.00 0.00 0.00 33 1016.0
20260505173218 26 202 4.8 17.7 0.00 0.00 0.00 33 1016.0
20260505172718 26 210 4.8 17.7 0.00 0.00 0.00 36 1016.0
20260505172216 26 250 3.2 11.3 0.00 0.00 0.00 34 1016.0
20260505171716 26 256 3.2 9.7 0.00 0.00 0.00 34 1016.0
20260505171218 25 274 4.8 11.3 0.00 0.00 0.00 36 1015.9
20260505170716 25 167 4.8 11.3 0.00 0.00 0.00 33 1015.9
20260505170217 25 236 4.8 11.3 0.00 0.00 0.00 35 1015.9
20260505165720 24 286 4.8 17.7 0.00 0.00 0.00 37 1016.1
20260505165715 25 229 3.2 11.3 0.00 0.00 0.00 36 1015.9
20260505164712 24 234 4.8 17.7 0.00 0.00 0.00 36 1016.2
20260505164213 23 234 3.2 14.5 0.00 0.00 0.00 37 1016.2
20260505163714 24 253 3.2 11.3 0.00 0.00 0.00 37 1016.2
20260505163211 24 259 3.2 9.7 0.00 0.00 0.00 39 1016.1
20260505162832 24 122 4.8 14.5 0.00 0.00 0.00 41 1016.3
20260505162716 24 224 3.2 11.3 0.00 0.00 0.00 38 1016.1
20260505162710 24 239 3.2 11.3 0.00 0.00 0.00 37 1016.2
20260505161208 24 243 4.8 14.5 0.00 0.00 0.00 43 1016.4
20260505160706 23 217 4.8 12.9 0.00 0.00 0.00 40 1016.5
20260505160206 24 245 4.8 12.9 0.00 0.00 0.00 39 1016.5
20260505153204 23 229 3.2 11.3 0.00 0.00 0.00 45 1016.7
20260505152704 23 238 3.2 9.7 0.00 0.00 0.00 45 1016.8
20260505152204 23 236 3.2 11.3 0.00 0.00 0.00 48 1016.8
20260505151702 23 249 3.2 11.3 0.00 0.00 0.00 48 1016.8
20260505151203 22 238 3.2 9.7 0.00 0.00 0.00 48 1016.8
20260505150701 22 203 1.6 9.7 0.00 0.00 0.00 48 1016.8
20260505150208 22 236 1.6 9.7 0.00 0.00 0.00 51 1016.8
20260505150202 22 229 1.6 9.7 0.00 0.00 0.00 50 1016.8
20260505130201 18 218 1.6 6.4 0.00 0.00 0.00 68 1016.2
20260505130155 18 217 3.2 9.7 0.00 0.00 0.00 67 1016.3
20260505124653 18 229 0.0 8.0 0.00 0.00 0.00 68 1016.2
20260505124152 17 218 0.0 8.0 0.00 0.00 0.00 70 1016.2
20260505123652 17 223 1.6 4.8 0.00 0.00 0.00 70 1016.1
20260505123151 17 247 0.0 4.8 0.00 0.00 0.00 70 1016.2
20260505122652 17 243 0.0 3.2 0.00 0.00 0.00 71 1016.2
20260505122153 16 217 0.0 4.8 0.00 0.00 0.00 73 1016.1
20260505121652 16 231 0.0 8.0 0.00 0.00 0.00 74 1016.0
20260505121153 16 243 0.0 8.0 0.00 0.00 0.00 74 1016.0
20260505120658 15 222 0.0 3.2 0.00 0.00 0.00 78 1015.9
20260505120652 15 222 0.0 0.0 0.00 0.00 0.00 76 1016.0
20260505115653 14 222 0.0 3.2 0.00 0.00 0.00 80 1015.8
20260505115151 13 117 0.0 1.6 0.00 0.00 0.00 84 1015.7
20260505114653 12 228 0.0 1.6 0.00 0.00 0.00 85 1015.7
20260505114155 12 228 0.0 0.0 0.00 0.00 0.00 87 1015.8
20260505114151 12 228 0.0 0.0 0.00 0.00 0.00 86 1015.8
20260505113150 11 228 0.0 0.0 0.00 0.00 0.00 87 1015.9
20260505112649 11 228 0.0 4.8 0.00 0.00 0.00 87 1015.9
20260505112147 11 228 0.0 4.8 0.00 0.00 0.00 88 1015.8
20260505111648 11 264 0.0 1.6 0.00 0.00 0.00 89 1015.8
20260505111148 10 229 0.0 1.6 0.00 0.00 0.00 89 1015.7
20260505110649 10 229 0.0 0.0 0.00 0.00 0.00 89 1015.7
20260505110149 10 229 0.0 0.0 0.00 0.00 0.00 88 1015.8
20260505102147 10 229 0.0 0.0 0.00 0.00 0.00 87 1015.5
20260505101646 10 229 0.0 0.0 0.00 0.00 0.00 86 1015.5
20260505101151 10 229 0.0 0.0 0.00 0.00 0.00 85 1015.5
20260505101147 10 229 0.0 0.0 0.00 0.00 0.00 86 1015.5
20260505100145 10 229 0.0 0.0 0.00 0.00 0.00 86 1015.5
20260505095645 10 229 0.0 0.0 0.00 0.00 0.00 85 1015.5
20260505095147 10 229 0.0 0.0 0.00 0.00 0.00 85 1015.5
20260505094651 10 229 0.0 0.0 0.00 0.00 0.00 85 1015.4
20260505094647 10 229 0.0 0.0 0.00 0.00 0.00 85 1015.4
20260505093641 10 229 0.0 0.0 0.00 0.00 0.00 84 1015.5
20260505093142 10 229 0.0 0.0 0.00 0.00 0.00 83 1015.4
20260505092641 10 229 0.0 0.0 0.00 0.00 0.00 83 1015.4
20260505092140 10 229 0.0 0.0 0.00 0.00 0.00 83 1015.4
20260505091643 10 229 0.0 0.0 0.00 0.00 0.00 82 1015.3
20260505091639 10 229 0.0 0.0 0.00 0.00 0.00 83 1015.4
20260505090637 10 229 0.0 0.0 0.00 0.00 0.00 82 1015.3
20260505090135 10 229 0.0 0.0 0.00 0.00 0.00 81 1015.3
20260505085636 11 229 0.0 0.0 0.00 0.00 0.00 81 1015.3
20260505085135 11 229 0.0 0.0 0.00 0.00 0.00 81 1015.2
20260505084637 11 229 0.0 0.0 0.00 0.00 0.00 81 1015.1
20260505084136 11 229 0.0 1.6 0.00 0.00 0.00 80 1015.1
20260505083637 11 229 0.0 1.6 0.00 0.00 0.00 80 1015.1
20260505083136 11 229 0.0 1.6 0.00 0.00 0.00 81 1015.0
20260505082641 10 299 0.0 0.0 0.00 0.00 0.00 81 1015.1
20260505082637 10 299 0.0 1.6 0.00 0.00 0.00 82 1015.0
20260505081636 10 299 0.0 0.0 0.00 0.00 0.00 81 1015.1
20260505081135 10 299 0.0 0.0 0.00 0.00 0.00 81 1015.1
20260505080637 10 299 0.0 0.0 0.00 0.00 0.00 80 1015.0
20260505080136 11 299 0.0 0.0 0.00 0.00 0.00 80 1015.0
20260505075635 11 299 0.0 0.0 0.00 0.00 0.00 80 1014.9
20260505075135 11 299 0.0 0.0 0.00 0.00 0.00 79 1014.9
20260505074636 11 299 0.0 0.0 0.00 0.00 0.00 79 1014.9
20260505074135 11 299 0.0 0.0 0.00 0.00 0.00 78 1014.9
20260505073637 11 299 0.0 1.6 0.00 0.00 0.00 80 1014.8
20260505073136 11 299 0.0 1.6 0.00 0.00 0.00 81 1014.8
20260505072637 10 13 0.0 1.6 0.00 0.00 0.00 81 1014.9
20260505072141 10 13 0.0 0.0 0.00 0.00 0.00 81 1014.9
20260505072135 10 13 0.0 0.0 0.00 0.00 0.00 81 1014.9
20260505071134 10 13 0.0 0.0 0.00 0.00 0.00 80 1014.9
20260505070637 11 13 0.0 0.0 0.00 0.00 0.00 80 1014.8
20260505070631 11 13 0.0 0.0 0.00 0.00 0.00 80 1014.8
20260505065633 11 13 0.0 0.0 0.00 0.00 0.00 79 1014.8
20260505065138 11 13 0.0 0.0 0.00 0.00 0.00 78 1014.6
20260505065132 11 13 0.0 0.0 0.00 0.00 0.00 78 1014.6
20260505064131 11 13 0.0 0.0 0.00 0.00 0.00 77 1014.6
20260505063632 11 13 0.0 0.0 0.00 0.00 0.00 76 1014.8
20260505063131 12 13 0.0 0.0 0.00 0.00 0.00 76 1014.6
20260505062637 12 13 0.0 1.6 0.00 0.00 0.00 74 1014.6
20260505062633 12 13 0.0 0.0 0.00 0.00 0.00 75 1014.6
20260505061630 12 13 0.0 1.6 0.00 0.00 0.00 71 1014.8
20260505061125 12 13 0.0 1.6 0.00 0.00 0.00 74 1014.8
20260505060626 12 13 0.0 1.6 0.00 0.00 0.00 74 1014.8
20260505060128 12 13 0.0 1.6 0.00 0.00 0.00 73 1014.8
20260505060124 12 13 0.0 1.6 0.00 0.00 0.00 74 1014.8
20260505055122 11 229 0.0 0.0 0.00 0.00 0.00 75 1014.6
20260505054622 11 229 0.0 0.0 0.00 0.00 0.00 75 1014.6
20260505054123 11 229 0.0 0.0 0.00 0.00 0.00 74 1014.6
20260505053621 12 229 0.0 0.0 0.00 0.00 0.00 74 1014.6
20260505053121 12 229 0.0 0.0 0.00 0.00 0.00 74 1014.6
20260505052622 12 229 0.0 0.0 0.00 0.00 0.00 74 1014.8
20260505052127 12 229 0.0 0.0 0.00 0.00 0.00 73 1014.9
20260505052123 12 229 0.0 0.0 0.00 0.00 0.00 73 1014.9
20260505051122 12 229 0.0 0.0 0.00 0.00 0.00 73 1014.9
20260505050621 12 229 0.0 0.0 0.00 0.00 0.00 73 1015.0
20260505050120 12 229 0.0 0.0 0.00 0.00 0.00 73 1015.0
20260505041117 13 229 0.0 0.0 0.00 0.00 0.00 69 1015.0
20260505040615 13 229 0.0 0.0 0.00 0.00 0.00 69 1015.1
20260505040115 13 229 0.0 0.0 0.00 0.00 0.00 68 1015.1
20260505035616 13 229 0.0 0.0 0.00 0.00 0.00 68 1015.1
20260505035116 13 229 0.0 0.0 0.00 0.00 0.00 68 1015.1
20260505034615 13 229 0.0 0.0 0.00 0.00 0.00 67 1015.1
20260505034121 14 229 0.0 0.0 0.00 0.00 0.00 66 1015.1
20260505034116 14 229 0.0 0.0 0.00 0.00 0.00 66 1015.1
20260505033115 14 229 0.0 0.0 0.00 0.00 0.00 66 1015.1
20260505032622 14 229 0.0 0.0 0.00 0.00 0.00 67 1015.2
20260505032615 14 229 0.0 0.0 0.00 0.00 0.00 66 1015.2
20260505031615 14 229 0.0 0.0 0.00 0.00 0.00 67 1015.2
20260505031114 14 229 0.0 0.0 0.00 0.00 0.00 64 1015.2
20260505030618 15 230 0.0 0.0 0.00 0.00 0.00 66 1015.2
20260505030613 14 230 0.0 0.0 0.00 0.00 0.00 65 1015.1
20260505025613 15 230 0.0 0.0 0.00 0.00 0.00 66 1015.2
20260505025114 15 230 0.0 0.0 0.00 0.00 0.00 65 1015.1
20260505024613 15 230 0.0 0.0 0.00 0.00 0.00 64 1015.1
20260505024113 15 230 0.0 0.0 0.00 0.00 0.00 62 1015.1
20260505023614 15 230 0.0 0.0 0.00 0.00 0.00 62 1015.1
20260505023118 15 230 0.0 0.0 0.00 0.00 0.00 60 1015.0
20260505023113 15 230 0.0 0.0 0.00 0.00 0.00 60 1015.1
20260505022107 16 230 0.0 0.0 0.00 0.00 0.00 59 1014.9
20260505021608 16 230 0.0 0.0 0.00 0.00 0.00 58 1014.9
20260505021107 16 230 0.0 0.0 0.00 0.00 0.00 56 1014.8
20260505020607 16 230 0.0 0.0 0.00 0.00 0.00 57 1014.8
20260505020107 16 230 0.0 0.0 0.00 0.00 0.00 54 1014.8
20260505015609 16 230 0.0 0.0 0.00 0.00 0.00 54 1014.8
20260505015107 16 230 0.0 1.6 0.00 0.00 0.00 54 1014.6
20260505014612 17 230 0.0 0.0 0.00 0.00 0.00 55 1014.6
20260505014607 17 230 0.0 1.6 0.00 0.00 0.00 54 1014.6
20260505013607 17 230 0.0 0.0 0.00 0.00 0.00 52 1014.5
20260505013105 17 230 0.0 0.0 0.00 0.00 0.00 52 1014.5
20260505012606 17 230 0.0 0.0 0.00 0.00 0.00 51 1014.4
20260505012104 17 230 0.0 0.0 0.00 0.00 0.00 50 1014.3
20260505011606 18 230 0.0 0.0 0.00 0.00 0.00 50 1014.3
20260505011104 18 230 0.0 0.0 0.00 0.00 0.00 48 1014.3
20260505010610 18 230 0.0 0.0 0.00 0.00 0.00 46 1014.3
20260505010605 18 230 0.0 0.0 0.00 0.00 0.00 48 1014.2
20260505005606 18 230 0.0 0.0 0.00 0.00 0.00 47 1014.2
20260505005105 19 230 0.0 0.0 0.00 0.00 0.00 47 1014.2
20260505004605 19 230 0.0 0.0 0.00 0.00 0.00 47 1014.2
20260505004108 20 230 0.0 0.0 0.00 0.00 0.00 43 1014.1
20260505004103 20 230 0.0 0.0 0.00 0.00 0.00 45 1014.1
20260505003103 20 230 0.0 0.0 0.00 0.00 0.00 39 1014.0
20260505002604 21 230 0.0 1.6 0.00 0.00 0.00 37 1014.0
20260505002105 21 230 0.0 1.6 0.00 0.00 0.00 37 1014.0
20260505001603 21 230 0.0 1.6 0.00 0.00 0.00 36 1014.0
20260505001108 22 236 0.0 3.2 0.00 0.00 0.00 35 1014.0
20260505001103 22 230 0.0 1.6 0.00 0.00 0.00 35 1013.9
20260504235603 22 241 0.0 4.8 0.00 0.00 0.00 34 1013.9
20260504235103 22 253 1.6 4.8 0.00 0.00 0.00 33 1013.8
20260504234602 23 242 1.6 9.7 0.00 0.00 0.00 34 1013.7
20260504234103 23 243 3.2 11.3 0.00 0.00 0.00 34 1013.7
20260504233608 23 242 3.2 11.3 0.00 0.00 0.00 34 1013.6
20260504233602 23 230 3.2 11.3 0.00 0.00 0.00 33 1013.7
20260504232602 23 236 4.8 11.3 0.00 0.00 0.00 33 1013.6
20260504232102 23 238 4.8 12.9 0.00 0.00 0.00 32 1013.6
20260504231603 23 157 3.2 12.9 0.00 0.00 0.00 31 1013.5
20260504231102 24 141 1.6 9.7 0.00 0.00 0.00 31 1013.5
20260504230604 24 229 3.2 8.0 0.00 0.00 0.00 31 1013.5
20260504230559 24 229 1.6 6.4 0.00 0.00 0.00 32 1013.4
20260504225559 24 235 1.6 8.0 0.00 0.00 0.00 31 1013.4
20260504225058 24 238 3.2 8.0 0.00 0.00 0.00 31 1013.4
20260504224559 24 92 3.2 9.7 0.00 0.00 0.00 30 1013.4
20260504224059 24 237 3.2 11.3 0.00 0.00 0.00 30 1013.4
20260504223559 24 216 3.2 11.3 0.00 0.00 0.00 29 1013.5
20260504223059 25 233 1.6 9.7 0.00 0.00 0.00 30 1013.5
20260504222600 25 252 3.2 11.3 0.00 0.00 0.00 29 1013.6
20260504222105 25 184 3.2 12.9 0.00 0.00 0.00 27 1013.6
20260504222100 25 248 3.2 12.9 0.00 0.00 0.00 27 1013.6
20260504221721 25 269 3.2 11.3 0.00 0.00 0.00 27 1013.6
20260504220604 25 219 3.2 11.3 0.00 0.00 0.00 27 1013.6
20260504220559 25 216 3.2 11.3 0.00 0.00 0.00 27 1013.6
20260504215559 25 332 3.2 11.3 0.00 0.00 0.00 28 1013.5
20260504215100 25 167 3.2 12.9 0.00 0.00 0.00 27 1013.6
20260504214559 25 159 3.2 12.9 0.00 0.00 0.00 26 1013.4
20260504214058 25 247 3.2 8.0 0.00 0.00 0.00 27 1013.4
20260504213559 25 231 3.2 11.3 0.00 0.00 0.00 28 1013.4
20260504213058 25 233 3.2 11.3 0.00 0.00 0.00 27 1013.5
20260504212559 25 238 3.2 11.3 0.00 0.00 0.00 26 1013.5
20260504212059 25 241 3.2 11.3 0.00 0.00 0.00 25 1013.5
20260504211559 25 230 3.2 9.7 0.00 0.00 0.00 26 1013.5
20260504211100 25 243 3.2 12.9 0.00 0.00 0.00 27 1013.5
20260504210557 25 204 1.6 14.5 0.00 0.00 0.00 28 1013.5
20260504210056 25 231 1.6 14.5 0.00 0.00 0.00 26 1013.6
20260504205557 25 222 1.6 6.4 0.00 0.00 0.00 28 1013.6
20260504205058 25 222 3.2 9.7 0.00 0.00 0.00 28 1013.7
20260504204558 25 350 1.6 9.7 0.00 0.00 0.00 28 1013.7
20260504204054 25 117 1.6 8.0 0.00 0.00 0.00 28 1013.7
20260504203553 25 259 3.2 8.0 0.00 0.00 0.00 27 1013.8
20260504203057 25 243 3.2 9.7 0.00 0.00 0.00 26 1013.8
20260504203051 25 215 3.2 8.0 0.00 0.00 0.00 26 1013.8
20260504202711 25 203 4.8 11.3 0.00 0.00 0.00 27 1013.8
20260504201553 26 53 1.6 11.3 0.00 0.00 0.00 27 1013.9
20260504201548 26 104 3.2 11.3 0.00 0.00 0.00 26 1013.9
20260504201209 26 233 3.2 11.3 0.00 0.00 0.00 27 1013.9
20260504200044 26 237 1.6 6.4 0.00 0.00 0.00 24 1013.9
20260504195544 26 40 1.6 8.0 0.00 0.00 0.00 26 1014.0
20260504195044 26 192 1.6 8.0 0.00 0.00 0.00 26 1014.1
20260504194550 25 277 3.2 8.0 0.00 0.00 0.00 26 1014.3
20260504194544 26 62 1.6 8.0 0.00 0.00 0.00 27 1014.3
20260504194042 26 103 4.8 12.9 0.00 0.00 0.00 25 1014.3
20260504193040 26 274 3.2 12.9 0.00 0.00 0.00 24 1014.4
20260504192541 26 228 1.6 6.4 0.00 0.00 0.00 26 1014.4
20260504192040 26 120 1.6 6.4 0.00 0.00 0.00 26 1014.6
20260504191545 26 240 1.6 8.0 0.00 0.00 0.00 23 1014.8
20260504191540 26 10 1.6 8.0 0.00 0.00 0.00 26 1014.6
20260504190540 27 89 1.6 8.0 0.00 0.00 0.00 28 1014.9
20260504190040 26 233 1.6 4.8 0.00 0.00 0.00 25 1014.9
20260504185541 27 248 1.6 6.4 0.00 0.00 0.00 25 1015.0
20260504185040 27 120 0.0 6.4 0.00 0.00 0.00 28 1015.0
20260504184540 26 223 1.6 4.8 0.00 0.00 0.00 23 1015.1